CAPE
552 119 447 869 0 0 0 0 0 2 0 0 0 0 0 0 0 0 0 0 53 131 323 408 505 598 546 771 718 560 527 568 667 675 675 675 744 872 1061 1031 948 730 404 464 572 416 418 579 638
560 998 1124 0 0 0 0 0 0 0 0 0 0 0 0 1 0 0 0 24 138 218 364 393 491 544 518 606 607 592 427 507 585 594 616 609 561 550 669 879 766 575 609 595 517 521 645 558 694
1219 1259 689 0 0 0 0 0 0 0 0 2 0 0 0 0 12 1 7 110 273 300 331 386 519 581 451 461 509 563 566 649 750 759 680 555 429 530 709 537 564 699 536 537 509 508 557 549 455
1727 1292 239 0 0 0 0 0 0 0 0 0 0 0 0 25 20 39 57 205 260 325 366 627 513 462 388 390 423 470 378 341 336 325 385 474 709 538 281 540 744 550 516 600 460 475 547 624 341
774 138 6 0 0 0 0 0 0 0 0 0 0 0 7 18 34 23 107 242 203 325 578 582 397 305 285 327 282 301 351 298 280 280 276 290 288 219 272 338 358 435 380 505 541 490 503 494 540
37 0 1 0 0 0 0 0 0 0 0 0 0 6 11 63 24 49 88 182 260 265 508 664 592 496 411 416 394 329 355 338 309 287 326 340 572 532 501 696 862 633 633 453 491 437 434 530 431
0 0 0 0 0 0 0 0 0 0 0 0 0 0 25 86 20 72 80 89 186 407 392 673 436 400 411 439 423 317 367 357 419 326 372 450 754 890 923 802 576 633 599 518 369 423 386 304 404
0 0 0 14 0 0 0 0 0 0 0 0 3 0 9 132 132 137 84 88 203 258 264 411 341 709 897 872 727 578 488 482 547 363 679 1051 624 851 669 714 874 790 726 601 565 337 349 312 273
0 0 0 6 0 0 0 0 0 0 0 0 0 0 1 149 304 340 261 101 130 277 230 284 269 662 1019 899 864 908 822 781 911 1025 991 774 655 410 468 93 654 1000 743 669 626 406 310 290 227
0 0 0 1 9 0 0 0 0 0 0 0 0 22 77 204 366 422 394 300 83 152 394 543 596 743 654 722 816 1147 1131 1184 971 988 777 496 501 164 288 233 185 800 961 760 485 400 264 324 238
1 0 0 0 24 0 0 0 0 0 0 0 3 0 131 259 311 352 342 224 64 59 243 571 609 718 662 724 739 976 776 772 802 450 494 488 271 323 476 285 228 102 466 606 486 348 220 74 112
11 4 0 5 10 3 0 0 0 0 0 0 23 75 168 232 266 226 96 31 4 14 37 220 499 460 445 450 514 592 581 312 288 334 318 350 233 84 393 162 173 170 0 75 285 231 88 58 65
5 4 0 19 7 12 3 0 0 0 0 5 70 168 212 232 260 209 186 52 52 17 17 38 138 124 172 220 419 304 399 393 425 462 472 570 453 288 26 156 109 178 0 0 1 54 78 41 19
20 59 5 3 3 4 0 0 0 0 0 0 81 81 214 225 184 103 104 124 94 91 63 96 84 68 83 123 341 360 331 457 381 426 494 630 338 285 221 43 136 240 260 67 47 6 19 15 31
22 119 84 72 3 0 6 0 0 0 0 0 86 43 115 215 171 124 50 69 88 110 192 188 265 298 316 288 424 663 630 391 616 573 573 685 609 602 507 286 350 536 375 218 121 56 109 85 75
24 77 174 143 39 52 8 2 15 0 0 0 0 15 16 56 38 67 34 22 19 87 207 272 252 361 460 458 510 616 594 598 619 644 595 793 844 796 733 700 564 635 384 320 177 132 116 127 124
1 137 114 194 85 37 46 29 13 0 19 21 7 0 0 0 5 3 5 2 7 36 104 281 372 422 408 443 460 607 905 784 843 743 927 991 966 856 729 669 802 313 266 274 274 133 142 137 77
4 15 112 65 163 153 94 121 60 12 8 43 20 0 0 0 0 0 0 0 1 3 45 192 358 501 420 378 486 716 1030 784 734 971 1002 585 72 386 642 790 517 652 485 292 309 213 186 131 67
0 2 26 79 110 325 359 227 139 37 8 0 3 2 0 0 0 0 0 0 0 0 34 144 369 482 380 431 405 633 782 1048 790 672 754 594 77 58 702 293 501 850 706 715 503 214 224 169 82
0 0 2 45 141 117 252 331 176 103 67 21 12 0 0 0 0 0 0 0 0 11 57 145 354 422 381 293 446 623 872 1259 1131 827 584 462 63 345 923 657 526 601 582 536 387 322 160 147 65
0 0 0 44 198 152 225 180 200 121 95 30 18 3 0 0 0 0 0 0 0 20 75 108 234 337 404 389 446 773 975 1041 866 906 912 875 708 498 498 775 564 429 438 386 246 208 188 163 122
0 0 0 64 100 91 132 14 126 197 114 53 19 6 0 0 0 0 0 0 0 18 62 111 216 381 469 356 516 995 1090 859 949 1055 980 966 529 933 1139 935 852 841 242 353 331 172 154 126 108
0 0 0 76 67 32 80 26 17 89 123 36 7 3 0 0 0 0 0 0 9 54 76 159 322 462 605 525 883 1015 1032 912 861 729 669 557 636 1040 1574 1202 694 814 490 517 429 215 150 72 2
0 0 0 0 0 60 0 44 1 43 53 80 81 3 0 0 0 0 0 2 36 95 136 251 345 476 680 588 835 1070 1066 889 924 1127 975 814 376 1129 1463 994 471 773 910 1023 791 232 193 246 137
0 0 0 0 28 0 0 19 7 6 0 3 101 167 41 0 2 0 4 4 38 98 180 318 447 573 701 779 893 1164 1147 1009 1062 1177 1007 1240 960 1066 1476 1313 949 1049 1117 1242 900 502 201 321 406
0 0 0 0 0 0 0 0 0 0 0 0 6 129 165 32 11 11 22 41 52 99 170 324 423 564 686 863 944 1135 1139 1095 1187 1257 1586 1605 1256 1319 1426 1259 1445 1456 1293 1183 813 499 349 237 319
0 0 0 0 0 0 0 0 0 0 4 113 57 191 171 143 91 56 19 89 98 86 157 337 493 678 747 828 991 1153 1240 1201 1376 1338 1418 1535 1698 1597 1506 1094 867 1270 1459 1486 1044 801 701 456 374
0 0 0 0 0 0 0 0 0 0 0 14 329 202 178 243 207 110 75 72 148 161 177 330 637 716 755 861 934 1135 1230 1272 1463 1523 1498 1579 1623 1699 1698 1560 1474 1383 1520 1385 1396 1148 723 631 518
0 0 0 0 0 0 0 0 0 0 0 0 216 223 167 307 361 264 148 101 201 328 365 447 512 675 864 969 931 1102 1166 1186 1375 1703 1882 1656 1584 1605 1623 1459 1528 1482 1627 1595 1418 1104 988 693 647
0 0 0 0 0 0 0 0 0 0 0 0 65 237 294 221 342 290 217 218 381 530 553 802 976 280 287 1161 1092 1114 1145 1186 1355 1503 1847 1975 1973 1897 1790 1459 1216 1134 765 798 1109 1404 1330 1064 746
CIN
-361 -388 -263 -142 -0 -0 -0 -0 -0 -82 -0 -0 -24 -0 -0 -0 -0 -0 -0 -179 -68 -10 -1 -17 -33 -18 -12 -0 -1 -6 -7 -2 -1 -4 -2 -14 -5 -0 -0 -0 -0 -4 -7 -2 -0 -0 -6 -1 -2
-390 -244 -162 -0 -0 -0 -0 -0 -0 -0 -0 -0 -0 -0 -0 -131 -0 -0 -0 -155 -23 -12 -13 -1 -10 -6 -13 -5 -14 -1 -5 -1 -1 -3 -1 -8 -6 -10 -1 -0 -0 -3 -0 -0 -0 -0 -0 -0 -0
-275 -236 -57 -0 -0 -0 -0 -0 -0 -0 -0 -60 -0 -0 -0 -0 -211 -214 -257 -77 -3 -12 -7 -2 -8 -6 -5 -11 -8 -21 -5 -4 -1 -1 -0 -2 -3 -6 -3 -12 -0 -0 -0 -0 -1 -0 -0 -1 -8
-164 -122 -149 -0 -0 -0 -0 -0 -0 -0 -0 -0 -0 -0 -0 -145 -203 -203 -179 -40 -11 -6 -3 -0 -21 -9 -9 -14 -15 -20 -32 -22 -37 -23 -18 -2 -0 -1 -23 -2 -0 -1 -0 -0 -18 -3 -0 -0 -18
-230 -174 -64 -0 -0 -0 -0 -0 -0 -0 -0 -0 -0 -0 -169 -169 -180 -240 -139 -39 -44 -11 -1 -0 -9 -12 -14 -17 -31 -35 -37 -39 -40 -37 -16 -20 -17 -19 -16 -4 -10 -9 -5 -0 -1 -15 -0 -2 -2
-110 -0 -33 -0 -0 -0 -0 -0 -0 -0 -0 -0 -0 -173 -168 -152 -208 -241 -162 -87 -40 -53 -8 -1 -10 -28 -27 -19 -28 -27 -25 -43 -34 -28 -9 -10 -2 -2 -2 -1 -0 -2 -1 -1 -0 -1 -11 -5 -5
-0 -0 -0 -0 -0 -0 -0 -0 -0 -0 -0 -0 -0 -0 -230 -147 -210 -206 -206 -197 -125 -39 -30 -9 -54 -50 -36 -27 -41 -33 -22 -26 -23 -23 -21 -6 -0 -0 -1 -0 -0 -0 -0 -6 -6 -2 -9 -17 -9
-0 -0 -9 -146 -0 -0 -0 -0 -0 -0 -0 -0 -187 -0 -281 -271 -183 -169 -199 -194 -126 -99 -85 -47 -86 -19 -3 -3 -16 -7 -12 -8 -3 -12 -0 -0 -4 -0 -0 -2 -0 -0 -0 -0 -4 -11 -12 -23 -21
-0 -0 -0 -111 -0 -0 -0 -0 -0 -0 -0 -0 -5 -0 -56 -249 -159 -125 -135 -193 -176 -96 -97 -82 -98 -38 -6 -13 -11 -0 -4 -0 -0 -0 -0 -4 -6 -18 -9 -25 -3 -0 -0 -0 -3 -9 -16 -18 -30
-0 -0 -0 -141 -145 -0 -0 -0 -0 -0 -0 -0 -17 -300 -288 -195 -143 -121 -120 -143 -232 -175 -90 -64 -62 -51 -40 -32 -17 -3 -1 -1 -1 -1 -7 -38 -21 -42 -25 -15 -14 -0 -0 -1 -4 -10 -16 -14 -32
-183 -0 -0 -0 -155 -0 -0 -0 -0 -0 -0 -0 -273 -0 -258 -194 -171 -157 -165 -173 -264 -233 -152 -106 -103 -76 -55 -47 -36 -24 -26 -22 -22 -46 -37 -34 -48 -33 -30 -28 -23 -35 -6 -10 -12 -7 -24 -48 -39
-131 -163 -0 -229 -205 -254 -0 -0 -0 -0 -0 -0 -310 -282 -247 -206 -181 -201 -266 -315 -332 -336 -288 -204 -146 -131 -105 -98 -81 -67 -62 -86 -98 -81 -67 -60 -61 -88 -31 -55 -53 -36 -0 -46 -21 -21 -31 -66 -51
-150 -135 -59 -205 -263 -290 -307 -0 -0 -0 -0 -267 -265 -215 -192 -179 -186 -196 -226 -328 -325 -386 -394 -329 -232 -218 -182 -165 -116 -114 -87 -80 -82 -73 -59 -63 -45 -56 -118 -85 -91 -49 -0 -0 -43 -64 -35 -50 -75
-188 -150 -101 -231 -239 -261 -0 -0 -0 -0 -0 -0 -220 -207 -165 -157 -167 -200 -217 -216 -265 -285 -321 -311 -264 -254 -227 -179 -109 -101 -110 -89 -97 -90 -76 -64 -73 -68 -68 -89 -86 -54 -54 -80 -83 -67 -126 -119 -84
-219 -98 -130 -214 -275 -0 -277 -0 -0 -0 -0 -0 -240 -230 -176 -153 -180 -172 -208 -231 -226 -253 -248 -252 -181 -167 -155 -131 -102 -84 -97 -128 -87 -87 -81 -66 -65 -57 -61 -71 -56 -45 -57 -61 -74 -91 -69 -75 -71
-161 -142 -72 -156 -207 -212 -222 -66 -239 -0 -39 -14 -0 -224 -250 -191 -194 -204 -230 -248 -275 -227 -178 -167 -187 -172 -144 -122 -110 -97 -110 -109 -97 -87 -98 -72 -63 -53 -59 -56 -54 -60 -80 -70 -73 -64 -60 -55 -51
-58 -61 -83 -94 -177 -174 -130 -99 -293 -0 -383 -360 -378 -0 -0 -0 -153 -225 -295 -309 -298 -243 -188 -150 -163 -170 -154 -149 -141 -112 -87 -84 -84 -95 -79 -61 -60 -61 -60 -61 -54 -85 -86 -78 -69 -76 -57 -49 -48
-13 -38 -109 -101 -126 -145 -126 -122 -283 -291 -376 -323 -353 -0 -0 -0 -0 -0 -0 -0 -132 -200 -225 -155 -145 -165 -167 -184 -157 -128 -103 -96 -100 -77 -83 -101 -182 -95 -75 -65 -81 -72 -72 -76 -71 -69 -82 -52 -38
-0 -182 -182 -149 -139 -106 -113 -149 -213 -358 -411 -0 -348 -250 -0 -0 -0 -0 -0 -0 -0 -0 -240 -156 -145 -166 -197 -213 -204 -136 -82 -62 -86 -103 -106 -117 -214 -213 -81 -104 -87 -70 -56 -59 -70 -90 -87 -82 -30
-0 -0 -57 -186 -195 -158 -142 -131 -252 -335 -322 -319 -352 -0 -0 -0 -0 -0 -0 -0 -0 -302 -198 -160 -158 -167 -194 -221 -216 -157 -81 -63 -80 -118 -134 -139 -229 -138 -74 -69 -71 -79 -63 -72 -71 -70 -85 -71 -67
-0 -0 -0 -176 -172 -238 -184 -137 -217 -399 -399 -370 -369 -250 -0 -0 -0 -0 -0 -0 -0 -396 -251 -177 -172 -162 -184 -208 -214 -152 -123 -105 -97 -95 -89 -87 -100 -117 -94 -65 -71 -79 -66 -57 -105 -80 -70 -69 -78
-0 -0 -0 -167 -148 -96 -207 -99 -182 -274 -318 -390 -345 -342 -0 -0 -0 -0 -0 -0 -0 -344 -289 -251 -203 -164 -166 -214 -176 -106 -73 -53 -58 -56 -74 -83 -122 -88 -73 -70 -69 -73 -104 -68 -70 -91 -84 -79 -56
-0 -0 -0 -247 -236 -229 -187 -166 -117 -306 -260 -346 -396 -385 -0 -0 -0 -0 -0 -0 -342 -314 -280 -253 -214 -172 -152 -183 -130 -93 -81 -86 -88 -91 -89 -104 -126 -98 -69 -76 -86 -66 -86 -79 -73 -86 -81 -76 -3
-0 -0 -0 -0 -0 -204 -78 -189 -90 -192 -164 -245 -381 -152 -0 -0 -0 -0 -0 -247 -371 -314 -292 -260 -209 -179 -149 -165 -133 -95 -80 -79 -68 -56 -51 -62 -120 -73 -65 -93 -97 -70 -68 -60 -60 -92 -89 -76 -87
-0 -0 -0 -0 -219 -0 -0 -226 -126 -98 -117 -309 -286 -334 -386 -33 -459 -0 -239 -369 -379 -267 -270 -279 -239 -182 -180 -165 -132 -106 -91 -74 -48 -46 -56 -48 -63 -56 -54 -65 -71 -60 -54 -57 -74 -87 -88 -83 -60
-0 -0 -0 -0 -0 -0 -0 -0 -0 -0 -0 -0 -71 -395 -403 -394 -464 -408 -356 -312 -311 -258 -288 -261 -259 -223 -223 -181 -161 -123 -106 -85 -61 -55 -45 -44 -48 -45 -54 -61 -73 -70 -62 -69 -86 -99 -89 -98 -71
-0 -0 -0 -0 -0 -0 -0 -0 -0 -0 -136 -266 -280 -362 -379 -382 -409 -354 -354 -281 -249 -279 -290 -257 -267 -231 -205 -190 -182 -151 -124 -107 -63 -57 -67 -53 -53 -55 -53 -82 -95 -88 -74 -60 -71 -66 -60 -73 -76
-0 -0 -0 -0 -0 -0 -0 -0 -0 -0 -0 -198 -224 -233 -303 -357 -369 -361 -318 -271 -254 -289 -391 -390 -344 -265 -227 -195 -196 -165 -130 -115 -92 -66 -70 -52 -53 -54 -51 -56 -78 -85 -71 -72 -59 -51 -79 -86 -111
-0 -0 -0 -0 -0 -0 -0 -0 -0 -0 -0 -0 -203 -247 -281 -310 -254 -319 -308 -279 -305 -373 -407 -326 -319 -300 -238 -208 -194 -173 -150 -131 -103 -77 -57 -58 -59 -56 -53 -63 -66 -76 -66 -68 -55 -83 -68 -89 -107
-0 -0 -0 -0 -0 -0 -0 -0 -0 -0 -0 -0 -252 -266 -279 -268 -231 -318 -370 -304 -328 -354 -384 -371 -312 -272 -406 -232 -177 -170 -167 -142 -111 -103 -71 -58 -46 -59 -60 -82 -90 -91 -119 -127 -98 -68 -60 -98 -170
Wind_Speed
25 23 19 14 12 10 11 6 6 15 14 21 18 6 6 8 11 6 12 7 7 33 34 30 28 29 27 33 33 33 31 31 30 30 29 29 28 28 28 28 27 27 27 23 25 8 3 26 14
25 21 14 12 24 22 18 20 22 5 15 15 5 5 9 10 10 5 2 7 30 33 34 33 32 33 33 33 32 31 30 30 29 28 28 27 26 26 26 27 27 27 27 24 24 27 24 12 17
19 17 14 16 28 30 27 25 23 15 15 9 8 7 8 8 1 10 3 29 33 33 28 33 34 33 32 31 30 30 30 29 28 27 26 25 24 24 24 25 26 26 26 26 25 27 30 30 19
14 10 12 10 24 9 23 26 26 23 8 8 10 5 7 7 2 9 15 31 26 32 32 32 32 31 30 29 28 27 27 26 26 25 25 23 22 22 22 23 24 23 25 25 26 26 27 29 29
12 10 7 6 7 17 17 28 26 20 5 8 12 3 5 14 5 8 22 22 25 27 28 31 30 29 28 27 26 25 24 24 23 22 22 21 21 20 20 19 20 21 21 24 26 25 23 25 26
10 12 3 18 3 16 19 27 24 26 17 20 5 2 20 12 19 5 17 25 28 31 30 30 29 27 26 25 24 23 23 22 21 20 20 19 19 19 19 18 19 19 21 22 25 26 26 22 24
16 12 3 16 9 16 22 18 22 26 29 22 30 2 25 31 17 33 29 31 29 30 30 28 28 27 25 24 23 22 22 21 20 19 19 18 17 18 18 18 19 20 20 23 24 25 25 24 22
14 10 14 15 25 17 24 18 24 28 23 27 29 29 30 32 31 30 29 29 30 29 29 28 27 26 25 24 23 22 21 20 19 18 18 17 17 18 18 18 19 20 20 22 23 24 24 24 23
11 9 21 17 24 21 25 23 24 20 27 21 21 26 29 33 28 26 14 21 28 28 28 27 26 25 24 23 22 21 20 20 19 18 17 17 17 16 16 18 19 20 20 21 23 23 24 24 24
8 23 18 20 23 25 26 25 27 23 25 21 20 24 28 30 29 28 28 27 27 28 28 27 26 24 23 22 21 20 20 20 19 18 18 18 17 15 17 18 19 19 20 21 21 23 24 24 24
17 16 16 16 22 27 27 25 23 26 22 22 24 27 30 30 30 29 28 27 27 26 26 25 25 23 23 22 20 19 20 19 19 18 17 17 16 14 16 17 17 18 19 20 20 22 22 24 24
15 14 20 23 24 25 26 24 21 22 17 23 25 26 27 29 28 28 28 27 27 26 26 27 25 24 23 22 20 20 20 19 19 19 17 16 15 15 17 18 18 17 19 20 20 20 21 22 23
17 11 21 23 24 24 24 23 20 20 20 21 24 25 26 27 29 27 24 23 23 23 25 26 26 25 24 23 21 20 20 19 19 18 17 16 16 16 17 18 17 18 19 19 20 16 20 21 19
13 16 23 22 23 23 23 21 19 20 19 20 21 23 26 27 27 26 25 23 21 19 19 23 24 22 23 22 20 18 19 19 19 19 18 17 16 16 17 18 17 17 18 18 19 19 15 18 22
15 10 6 13 22 22 22 20 17 19 19 19 20 22 25 26 25 26 25 23 21 20 18 16 17 16 20 20 19 17 17 17 18 18 18 17 17 16 18 17 17 17 17 18 17 16 16 10 17
11 12 12 14 22 18 19 13 15 22 22 21 20 21 24 26 27 24 22 22 21 19 19 18 12 13 16 17 16 14 16 17 18 18 18 17 16 15 18 16 16 16 15 16 15 13 14 15 12
15 17 17 16 17 18 18 13 18 23 23 22 21 22 24 25 25 25 24 22 20 20 20 18 12 13 13 14 11 11 8 9 14 17 18 14 15 16 14 16 16 15 17 14 14 13 12 9 8
17 21 18 20 20 13 14 15 18 21 23 22 20 19 21 23 25 24 23 22 20 19 19 16 13 13 12 12 9 8 8 10 13 18 17 18 18 18 15 16 15 15 14 13 13 12 16 18 11
13 18 12 18 20 18 18 16 18 20 20 20 19 19 19 21 23 21 19 18 18 19 17 18 16 16 14 11 10 8 5 14 20 19 19 19 17 17 15 15 14 13 13 12 12 13 14 16 15
15 18 17 18 18 20 19 20 17 15 17 18 16 18 19 21 20 20 19 17 19 22 22 21 21 19 17 15 14 6 9 17 19 20 21 19 17 16 15 15 14 14 14 15 15 15 9 14 15
18 21 20 8 15 18 18 22 10 14 15 18 20 20 21 21 20 18 18 19 19 20 24 24 23 22 21 20 16 6 10 17 18 19 20 20 17 16 15 15 15 14 13 14 16 18 17 14 19
16 17 23 19 11 12 20 21 15 15 15 18 23 24 24 22 21 19 15 16 20 22 23 23 23 23 22 21 21 19 17 21 20 19 18 18 18 17 16 15 15 14 14 15 17 19 18 16 16
14 14 12 13 14 18 22 20 16 9 10 15 22 24 25 25 22 20 17 17 21 21 23 23 22 22 23 23 22 21 21 22 17 14 16 19 20 18 16 15 15 14 14 15 16 16 17 16 15
11 11 15 16 17 21 4 8 22 11 8 12 18 22 24 25 22 19 18 16 19 20 17 18 21 21 23 24 23 21 21 21 20 18 20 19 19 18 16 15 16 15 14 15 16 16 16 15 14
11 9 17 17 16 14 21 14 20 14 7 8 13 19 25 26 25 19 14 13 16 23 20 18 20 21 21 22 23 21 20 20 18 22 22 21 18 11 15 12 14 15 14 14 14 14 14 14 13
12 12 14 18 18 21 18 16 22 22 19 14 11 19 20 23 23 20 16 15 19 22 21 17 18 20 21 20 22 20 20 20 19 18 17 21 19 9 13 12 9 14 14 13 13 13 12 11 11
17 18 14 16 19 20 16 24 32 23 24 20 9 12 19 19 21 20 18 16 18 18 20 18 16 17 22 22 21 20 16 15 20 15 21 24 20 12 9 10 10 12 13 12 12 11 11 10 9
15 10 18 19 24 29 24 23 15 27 26 6 8 17 21 19 19 20 20 17 18 15 3 2 6 6 23 21 21 19 17 12 4 24 25 23 21 16 17 19 8 10 9 10 10 10 11 8 7
15 17 18 17 20 28 36 35 14 31 22 5 10 16 17 18 21 19 19 14 8 7 9 8 2 9 17 30 27 19 18 17 14 25 24 23 20 21 22 9 8 8 8 8 9 10 9 8 8
17 19 16 22 25 22 26 30 21 22 25 5 13 13 13 16 22 21 14 12 11 10 9 10 2 4 5 28 27 24 20 17 19 25 26 25 25 23 18 8 7 8 8 8 7 5 7 9 12
Wind_Direction
102 115 131 146 8 8 11 324 327 61 67 107 93 325 355 272 250 301 203 209 166 138 136 109 99 98 90 103 103 109 101 100 97 97 107 107 103 100 93 91 92 72 102 124 119 166 75 150 68
108 123 152 154 52 39 42 49 65 294 81 75 344 322 285 285 251 87 111 205 162 135 140 138 111 115 113 116 111 115 106 107 102 98 108 109 111 106 104 93 92 86 92 126 128 123 84 172 170
127 142 152 139 89 67 77 87 71 44 76 58 5 258 263 247 322 85 196 166 152 145 166 147 136 128 123 123 125 116 121 126 109 108 109 112 118 113 107 102 99 101 87 108 127 127 124 129 174
167 199 163 50 43 12 51 93 88 72 229 253 48 333 291 7 24 219 186 164 175 158 154 151 131 134 130 132 137 134 134 131 114 115 112 115 121 120 115 112 106 111 118 109 122 133 136 135 148
180 206 203 192 175 142 136 89 90 73 255 42 222 339 32 202 30 102 181 184 180 177 174 154 142 142 141 142 140 141 137 130 119 123 124 122 123 124 127 128 123 121 135 121 116 145 156 153 160
190 185 270 33 270 155 139 120 118 97 138 91 26 93 169 145 92 151 192 181 176 162 164 158 144 144 144 144 139 142 142 134 128 141 133 129 133 133 135 136 134 135 136 146 132 144 149 162 158
159 177 0 33 9 162 138 153 138 124 122 150 128 153 158 130 93 151 170 161 168 163 163 160 151 149 151 149 145 146 144 144 143 141 147 145 148 143 139 140 135 135 140 143 142 142 147 155 162
167 191 49 168 120 162 126 153 142 124 143 135 127 135 134 141 127 164 170 171 162 163 167 158 154 157 158 154 150 151 153 152 146 148 153 151 156 149 143 136 140 135 136 141 139 135 153 156 160
185 188 136 154 131 147 116 133 144 155 128 156 156 137 133 136 124 119 99 199 167 170 170 161 154 159 158 152 154 146 153 158 150 147 143 153 170 167 166 130 136 135 138 149 145 148 148 155 166
218 105 142 144 140 129 120 104 120 134 129 157 124 100 118 130 134 135 134 175 185 162 172 173 161 156 155 152 147 146 156 157 157 158 159 154 139 172 152 123 124 131 139 144 152 148 146 154 173
148 138 159 156 140 105 112 119 133 108 139 149 116 119 129 135 146 150 150 150 151 153 162 159 161 155 158 154 143 147 156 154 159 162 144 166 156 165 141 128 113 156 149 153 153 155 147 157 163
164 175 131 99 99 106 115 101 152 124 158 129 116 119 126 139 143 147 152 155 153 154 162 171 162 161 157 159 152 152 160 162 161 163 154 143 163 168 146 130 130 129 169 162 148 144 152 149 162
152 188 127 110 106 110 105 128 137 142 81 91 110 122 131 138 149 151 143 142 140 143 151 164 164 170 166 161 157 148 161 161 163 170 161 159 172 176 158 148 144 134 145 162 162 111 145 150 128
193 162 99 98 106 112 111 118 91 138 85 95 111 129 140 145 149 152 151 146 139 135 134 149 159 152 161 158 154 153 161 161 168 190 182 182 170 169 163 143 149 142 134 144 153 148 124 143 170
183 353 260 136 109 108 87 105 151 107 104 106 119 134 147 153 152 155 153 148 141 143 140 136 138 133 154 154 152 151 158 149 164 180 183 177 176 127 175 138 149 148 142 131 127 124 134 93 154
358 247 229 195 138 167 162 186 180 124 119 124 127 136 149 158 161 159 156 156 152 146 148 147 125 131 142 145 144 140 156 158 173 178 183 158 149 130 197 154 153 148 119 113 107 82 121 140 143
242 226 231 222 194 156 172 192 130 137 135 129 132 144 152 159 165 170 167 163 158 158 158 153 133 138 136 138 123 120 23 35 140 166 160 127 109 168 96 144 136 111 107 96 103 84 26 81 50
125 219 256 233 214 234 90 147 123 143 149 147 142 138 149 162 173 172 170 169 166 163 161 151 140 141 131 127 101 94 3 342 320 155 146 164 223 188 140 140 123 98 99 82 79 60 315 290 116
88 178 90 242 190 166 179 176 149 147 152 156 155 156 157 161 172 169 167 166 167 167 161 161 149 147 134 119 110 102 43 303 194 168 169 177 177 153 124 137 124 98 107 111 92 8 336 315 33
312 209 188 233 194 179 196 207 167 148 159 159 154 160 166 172 170 172 169 167 171 175 173 168 166 156 150 139 135 23 341 265 239 214 193 210 146 124 127 132 120 111 101 93 98 92 262 277 42
292 244 219 331 272 241 221 238 142 164 162 171 179 178 182 178 174 165 163 165 165 167 173 173 170 166 164 159 140 345 324 267 251 247 229 199 142 137 127 133 127 134 120 118 134 138 160 258 150
294 271 253 279 356 350 247 239 175 160 171 178 187 189 189 187 179 171 157 154 164 169 167 168 166 167 168 162 159 154 148 194 249 254 259 259 179 162 158 147 144 133 143 144 150 159 173 190 115
295 310 323 316 320 313 256 282 186 86 157 183 191 190 190 191 181 170 162 159 161 157 159 161 161 164 168 168 167 168 175 196 273 295 272 259 257 214 155 139 136 141 131 148 147 141 150 143 120
304 313 311 304 306 269 239 10 228 130 152 190 192 189 187 186 181 172 163 157 155 156 150 154 160 163 168 172 171 172 174 178 223 285 255 272 274 217 157 133 141 147 137 142 145 148 152 150 142
283 300 293 292 299 300 296 315 196 219 174 213 188 189 185 182 179 168 157 153 155 164 157 154 160 164 164 168 174 174 173 167 169 224 230 251 285 107 144 85 136 150 143 129 131 130 144 149 155
261 272 283 285 290 290 299 302 215 297 251 224 192 180 172 171 171 169 163 156 160 162 161 154 155 162 165 164 172 173 179 177 178 177 168 229 262 85 334 357 72 147 136 116 106 113 123 125 143
268 266 287 294 293 295 302 291 256 314 312 345 85 133 158 163 167 168 164 162 159 157 161 155 147 154 169 171 173 171 163 166 183 160 196 240 269 327 7 10 50 133 142 123 94 108 111 103 120
269 270 275 284 284 281 291 297 312 292 319 68 97 152 160 161 164 163 165 163 165 157 128 81 329 307 206 175 175 175 172 161 154 264 247 256 271 304 305 292 95 110 100 102 84 59 50 73 70
270 273 283 290 290 286 278 280 301 284 315 172 156 157 152 156 165 163 168 165 157 130 125 141 119 307 286 229 209 183 180 180 170 258 257 256 277 277 256 343 64 57 81 91 60 45 35 32 22
275 278 280 278 285 293 288 282 302 294 299 346 169 160 155 152 159 165 160 159 152 144 143 146 151 184 221 244 205 200 188 174 180 237 252 255 255 258 191 119 74 72 74 53 56 63 35 357 344